Location: La B�doule
(43.2468°N, 5.5934°E)
Time: 21:47:01
(UTC+00:00)

NOSS 3-1 (A) - Visible Passes

Search period start: 29 September 2020 00:00
Search period end: 09 October 2020 00:00
Orbit: 745 x 1467 km, 63.4° (Epoch: 27 September)

Date Brightness Start Highest point End Pass type
(mag) Time Alt. Az. Time Alt. Az. Time Alt. Az.
29 Sep 5.9 18:12:00 10° NNW 18:15:09 14° N 18:18:31 10° NNE visible
29 Sep 5.5 20:03:56 10° NNW 20:09:07 21° NNE 20:10:38 20° NE visible
29 Sep 5.3 21:54:18 10° NNW 21:58:03 32° NNW 21:58:03 32° NNW visible
29 Sep 6.4 23:45:26 10° NW 23:45:28 10° NW 23:45:28 10° NW visible
30 Sep 5.7 19:19:12 10° NNW 19:23:35 17° NNE 19:27:06 13° NE visible
30 Sep 5.1 21:09:40 10° NNW 21:14:31 35° N 21:14:31 35° N visible
30 Sep 6.0 23:00:24 10° NW 23:01:56 18° NW 23:01:56 18° NW visible
01 Oct 5.8 18:34:17 10° NNW 18:37:57 15° N 18:41:56 10° NE visible
01 Oct 5.1 20:25:03 10° NNW 20:31:01 31° NNE 20:31:01 31° NNE visible
01 Oct 5.6 22:15:33 10° NW 22:18:26 27° NW 22:18:26 27° NW visible
02 Oct 5.8 17:49:04 10° NNW 17:52:17 14° N 17:55:44 10° NNE visible
02 Oct 5.3 19:40:27 10° NNW 19:46:06 24° NNE 19:47:31 23° NE visible
02 Oct 5.1 21:30:50 10° NNW 21:34:58 37° NNW 21:34:58 37° NNW visible
02 Oct 6.4 23:22:18 10° NW 23:22:23 10° NW 23:22:23 10° NW visible
03 Oct 5.5 18:55:47 10° NNW 19:00:39 19° NNE 19:04:05 15° NE visible
03 Oct 4.8 20:46:10 10° NNW 20:51:31 43° N 20:51:31 43° N visible
03 Oct 6.0 22:37:07 10° NW 22:38:57 19° NW 22:38:57 19° NW visible
04 Oct 5.6 18:10:59 10° NNW 18:15:04 16° NNE 18:19:31 10° NE visible
04 Oct 4.8 20:01:33 10° NNW 20:08:06 37° NE 20:08:06 37° NE visible
04 Oct 5.5 21:52:11 10° NW 21:55:32 30° NW 21:55:32 30° NW visible
05 Oct 5.1 19:16:56 10° NNW 19:23:03 28° NE 19:24:43 26° NE visible
05 Oct 4.8 21:07:22 10° NW 21:12:09 45° NNW 21:12:09 45° NNW visible
05 Oct 6.4 22:59:19 10° WNW 22:59:35 11° WNW 22:59:35 11° WNW visible
06 Oct 5.3 18:32:18 10° NNW 18:37:40 22° NNE 18:41:23 16° ENE visible
06 Oct 4.4 20:22:41 10° NNW 20:28:49 55° N 20:28:49 55° N visible
06 Oct 5.9 22:13:54 10° NW 22:16:15 20° WNW 22:16:15 20° WNW visible
07 Oct 5.5 17:47:36 10° NNW 17:52:09 18° NNE 17:57:10 10° ENE visible
07 Oct 4.5 19:38:02 10° NNW 19:45:06 44° NE 19:45:32 44° NE visible
07 Oct 5.3 21:28:51 10° NW 21:32:58 35° WNW 21:32:58 35° WNW visible
08 Oct 4.8 18:53:25 10° NNW 18:59:56 33° NE 19:02:17 28° ENE visible
08 Oct 4.5 20:43:58 10° NW 20:49:44 57° NW 20:49:44 57° NW visible
08 Oct 6.4 22:36:35 10° WNW 22:37:11 12° WNW 22:37:11 12° WNW visible
